Torna al catalogo

OPS 9314

IDSCS 4

AttivoMilitareMEO
NORAD 2218·PAYLOAD·🇺🇸 United States

Lanciato Jun 16, 1966 da Cape Canaveral Space Force Station

Loading…

Prossimi Passaggi (prossime 24 ore)

TLE

AggiornatoSource: Space-Track

Epoca: Sep 14, 2026, 13:53 UTC

1 02218U 66053E   26257.57856770 -.00000082  00000-0  00000-0 0  9991
2 02218   8.7309  43.8875 0044734 201.1897 333.7030  1.07584995236364

Traccia OPS 9314 in tempo reale con AllMySat

Download on the App Store